TimeEDT,TemperatureF,Dew PointF,Humidity,Sea Level PressureIn,VisibilityMPH,Wind Direction,Wind SpeedMPH,Gust SpeedMPH,PrecipitationIn,Events,Conditions,WindDirDegrees,DateUTC
12:53 AM,73.0,72.0,96,30.05,10.0,ESE,3.5,-,N/A,,Clear,120,2013-07-14 04:53:00
1:53 AM,73.0,72.0,96,30.04,10.0,Calm,Calm,-,N/A,,Clear,0,2013-07-14 05:53:00
2:53 AM,75.0,73.0,94,30.04,10.0,SE,3.5,-,N/A,,Mostly Cloudy,130,2013-07-14 06:53:00
3:53 AM,75.0,73.9,96,30.03,10.0,ESE,8.1,-,N/A,,Overcast,120,2013-07-14 07:53:00
4:53 AM,75.9,73.9,94,30.03,10.0,SSE,5.8,-,N/A,,Partly Cloudy,160,2013-07-14 08:53:00
5:19 AM,73.4,71.6,94,30.03,10.0,SSE,9.2,20.7,0.43,Rain,Heavy Rain,150,2013-07-14 09:19:00
5:34 AM,75.2,73.4,94,30.03,10.0,South,6.9,-,0.58,Rain,Heavy Rain,170,2013-07-14 09:34:00
5:53 AM,75.0,73.9,96,30.02,10.0,South,4.6,-,0.60,Rain,Light Rain,170,2013-07-14 09:53:00
6:53 AM,73.9,73.0,97,30.03,10.0,Calm,Calm,-,0.01,,Partly Cloudy,0,2013-07-14 10:53:00
7:53 AM,77.0,75.0,94,30.04,10.0,SSE,3.5,-,N/A,,Clear,150,2013-07-14 11:53:00
8:53 AM,79.0,73.0,82,30.07,10.0,SSE,4.6,-,N/A,,Overcast,160,2013-07-14 12:53:00
9:53 AM,84.0,73.9,72,30.06,10.0,SE,6.9,-,N/A,,Clear,140,2013-07-14 13:53:00
10:53 AM,84.0,69.1,61,30.08,10.0,SSE,9.2,-,N/A,,Mostly Cloudy,160,2013-07-14 14:53:00
11:53 AM,86.0,71.1,61,30.09,10.0,SE,13.8,-,N/A,,Partly Cloudy,140,2013-07-14 15:53:00
12:53 PM,84.0,72.0,67,30.09,10.0,SE,9.2,-,N/A,,Clear,130,2013-07-14 16:53:00
1:53 PM,84.9,72.0,65,30.09,10.0,ESE,12.7,-,N/A,,Clear,120,2013-07-14 17:53:00
2:53 PM,84.9,72.0,65,30.08,10.0,SE,12.7,-,N/A,,Partly Cloudy,130,2013-07-14 18:53:00
3:53 PM,86.0,73.0,65,30.06,10.0,ESE,11.5,-,N/A,,Scattered Clouds,120,2013-07-14 19:53:00
4:53 PM,84.0,73.0,69,30.06,10.0,East,17.3,-,N/A,,Scattered Clouds,90,2013-07-14 20:53:00
5:10 PM,82.4,73.4,74,30.06,10.0,East,16.1,-,N/A,,Mostly Cloudy,90,2013-07-14 21:10:00
5:22 PM,82.4,73.4,74,30.07,10.0,East,13.8,-,N/A,,Mostly Cloudy,90,2013-07-14 21:22:00
5:53 PM,82.0,73.0,74,30.06,10.0,East,10.4,-,N/A,,Mostly Cloudy,90,2013-07-14 21:53:00
6:42 PM,77.0,71.6,83,30.10,10.0,NW,12.7,17.3,0.00,Rain,Light Rain,320,2013-07-14 22:42:00
6:53 PM,73.9,70.0,87,30.11,10.0,NNW,11.5,-,0.00,Rain,Light Rain,330,2013-07-14 22:53:00
7:03 PM,73.4,69.8,88,30.11,10.0,WNW,12.7,-,0.03,Rain,Light Rain,300,2013-07-14 23:03:00
7:22 PM,71.6,69.8,94,30.11,10.0,NW,11.5,-,0.07,Rain,Light Rain,320,2013-07-14 23:22:00
7:53 PM,71.1,69.1,93,30.11,10.0,NW,11.5,-,0.12,Rain,Light Rain,310,2013-07-14 23:53:00
8:53 PM,72.0,70.0,93,30.10,10.0,North,6.9,-,0.05,Rain,Light Rain,360,2013-07-15 00:53:00
9:53 PM,72.0,70.0,93,30.11,10.0,Calm,Calm,-,0.00,,Overcast,0,2013-07-15 01:53:00
10:53 PM,72.0,71.1,97,30.10,10.0,Calm,Calm,-,N/A,,Scattered Clouds,0,2013-07-15 02:53:00
11:53 PM,72.0,71.1,97,30.11,10.0,NE,4.6,-,N/A,,Mostly Cloudy,50,2013-07-15 03:53:00